Airport Information

KYKM - Yakima Air Terminal McAllister Field Airport

KYKM 020753Z AUTO 26006KT 10SM CLR M02/M04 A3008 RMK AO2 SLP193 T10171044 401171017


  • General Information

  • Coordinates: N 46°34'5"/ W 120°32'38"
  • Location: N/A
  • Surveyed Elevation: 1095 MSL

Operations

Flow Name Active Runways Conditions

Green background denotes normal operations.


Common Frequencies

Callsign Frequency Position Name

More at the Document Center


Charts